Location: Bretagne
(43.8474°N, 0.4650°W)
Time: 09:40:21
(UTC+00:00)

Cosmos 2341 Rocket - Pass Details

Date: 15 January 2026
Orbit: 967 x 1004 km, 82.9° (Epoch: 17 February)

Event Time Altitude Azimuth Distance (km) Brightness Sun altitude
Rises 17:34:55 0° 353° (N) 3,721 6.9 -8.2°
Reaches altitude 10° 17:37:28 10° 354° (N) 2,763 6.2 -8.6°
Maximum altitude 17:43:49 78° 81° (E) 1,008 4.0 -9.7°
Drops below altitude 10° 17:50:04 10° 169° (SSE) 2,718 6.4 -10.7°
Sets 17:52:33 0° 170° (S) 3,657 7.1 -11.1°
